Location: Gilevgi
(36.8751°N, 30.0581°E)
Time: 08:45:53
(UTC+00:00)

Okean 1-7 Rocket - Pass Details

Date: 14 March 2026
Orbit: 609 x 643 km, 82.5° (Epoch: 19 April)

Event Time Altitude Azimuth Distance (km) Brightness Sun altitude
Rises 03:16:00 0° 2° (N) 2,925 7.1 -12.1°
Reaches altitude 10° 03:18:23 10° 10° (N) 2,008 6.4 -11.7°
Maximum altitude 03:22:31 37° 79° (ENE) 968 5.3 -10.8°
Drops below altitude 10° 03:26:35 10° 147° (SSE) 1,975 6.5 -10.0°
Sets 03:28:55 0° 155° (SSE) 2,870 7.3 -9.6°
